Vorticity
5 5 5 3 4 1 3 3 2 3 7 3 6 4 4 5 3 5 10 4 3 3 3 11 4 5 6 8 7 5 4 3 2
6 4 3 6 9 8 6 5 4 4 4 4 6 5 5 4 5 1 1 3 3 5 4 4 3 10 5 4 5 6 6 5 5
5 7 7 6 5 5 5 4 5 6 5 3 4 4 5 7 7 6 3 3 4 3 3 2 4 5 6 6 5 4 5 6 6
2 4 5 6 6 6 6 6 7 7 7 5 7 5 2 6 6 8 9 9 10 10 6 5 4 1 2 4 7 7 6 5 6
3 2 1 2 1 1 1 4 6 7 6 6 5 8 7 1 2 3 5 4 2 5 8 8 8 10 9 7 3 8 8 7 6
4 5 4 4 5 5 4 5 5 3 5 6 5 6 7 7 5 2 3 2 3 0 2 -1 4 6 3 10 10 6 2 4 7
0 1 2 4 4 4 3 5 5 6 6 5 5 4 5 6 7 7 6 3 0 -1 1 3 2 -1 0 4 1 4 7 5 5
4 3 2 4 4 2 -1 -1 1 0 2 2 3 4 4 3 4 4 6 7 7 6 5 4 2 4 3 0 -1 1 1 3 6
1 1 3 2 2 1 1 2 1 1 2 2 2 3 2 2 3 1 -1 1 0 3 6 6 6 6 8 8 4 1 1 2 3
4 9 10 10 10 10 10 10 10 10 10 10 10 9 9 9 6 3 1 6 3 9 7 9 3 0 1 3 7 8 9 9 9
8 7 6 5 5 5 4 4 5 5 5 5 6 5 5 6 6 8 7 8 -2 -1 -1 -1 -1 -1 1 6 5 4 4 4 4
5 4 4 5 6 6 7 7 7 6 6 6 6 6 6 6 7 6 6 6 7 9 10 8 8 7 6 2 1 0 0 4 4
5 4 5 5 6 7 7 8 8 8 8 8 7 7 7 6 6 6 7 7 7 7 6 7 6 6 7 8 9 8 6 4 2
4 5 6 7 7 7 7 6 6 5 5 6 6 6 7 7 7 7 7 6 7 7 8 7 6 7 8 8 8 7 7 7 6
5 6 6 7 7 7 7 6 5 6 5 6 7 7 8 9 10 10 9 8 8 8 7 8 8 7 7 8 8 8 9 9 8
6 7 8 8 7 7 7 7 7 8 8 9 9 8 8 7 6 6 6 6 7 8 8 8 8 7 5 6 6 7 7 6 6
7 7 7 7 6 6 6 7 7 8 7 6 6 6 7 6 6 5 5 5 5 5 5 5 5 6 8 8 9 8 7 7 7
7 7 7 6 6 6 6 7 6 6 7 7 6 8 5 6 6 7 7 6 6 5 4 5 4 5 5 4 4 6 8 9 9
8 7 6 6 6 6 6 6 6 7 7 8 7 8 7 6 9 7 6 5 5 4 5 4 4 3 5 4 7 7 7 7 7
7 6 6 7 6 6 6 6 7 7 8 9 8 9 8 8 8 6 7 7 7 5 4 3 3 3 5 6 6 7 7 6 7
Height
3161 3162 3163 3164 3166 3166 3167 3168 3169 3171 3173 3175 3176 3177 3178 3178 3179 3180 3181 3181 3181 3182 3183 3184 3184 3184 3184 3185 3186 3186 3186 3186 3187
3161 3162 3163 3164 3166 3166 3167 3168 3169 3170 3173 3175 3175 3176 3178 3178 3179 3180 3181 3182 3182 3182 3183 3184 3184 3184 3185 3185 3186 3186 3186 3187 3187
3160 3162 3164 3164 3165 3166 3166 3167 3168 3170 3172 3174 3175 3176 3177 3178 3179 3180 3181 3181 3182 3182 3183 3183 3184 3184 3185 3185 3185 3186 3186 3186 3186
3160 3162 3163 3164 3165 3166 3166 3166 3168 3170 3171 3173 3173 3174 3177 3178 3178 3179 3180 3181 3181 3181 3182 3182 3183 3183 3184 3184 3184 3185 3185 3185 3186
3160 3161 3162 3164 3164 3165 3166 3166 3168 3170 3171 3171 3172 3174 3175 3176 3177 3178 3180 3180 3180 3180 3181 3182 3182 3182 3183 3183 3183 3183 3184 3184 3185
3158 3160 3161 3162 3163 3164 3164 3165 3167 3169 3171 3171 3172 3173 3174 3175 3176 3177 3179 3179 3180 3181 3181 3181 3181 3182 3182 3182 3182 3183 3184 3183 3184
3155 3157 3158 3160 3161 3163 3163 3164 3164 3167 3168 3169 3171 3172 3173 3173 3174 3175 3177 3177 3177 3179 3179 3180 3180 3180 3180 3181 3182 3182 3183 3183 3183
3153 3154 3156 3157 3159 3160 3161 3162 3162 3164 3166 3167 3168 3169 3171 3172 3173 3174 3175 3175 3175 3177 3177 3177 3177 3178 3176 3180 3181 3181 3182 3181 3182
3149 3151 3153 3154 3155 3157 3158 3159 3160 3161 3163 3164 3165 3166 3168 3169 3170 3170 3172 3172 3173 3175 3174 3174 3172 3174 3175 3178 3178 3178 3179 3179 3179
3145 3147 3149 3150 3151 3153 3154 3155 3156 3157 3159 3160 3162 3162 3163 3165 3165 3166 3167 3168 3169 3170 3171 3169 3168 3170 3172 3174 3175 3175 3176 3176 3177
3142 3144 3145 3147 3148 3149 3150 3152 3152 3153 3155 3156 3158 3158 3159 3160 3161 3162 3163 3164 3165 3166 3167 3165 3163 3166 3167 3170 3172 3171 3171 3172 3173
3137 3139 3140 3142 3143 3144 3146 3147 3148 3149 3150 3152 3153 3154 3155 3155 3157 3158 3158 3159 3160 3161 3162 3161 3160 3159 3162 3164 3166 3165 3166 3167 3168
3131 3133 3135 3136 3137 3138 3140 3141 3143 3144 3145 3147 3148 3149 3149 3150 3151 3151 3152 3153 3154 3155 3155 3156 3154 3153 3158 3158 3159 3159 3160 3161 3162
3125 3127 3130 3131 3132 3133 3135 3136 3137 3138 3139 3140 3142 3143 3144 3145 3145 3146 3146 3147 3147 3148 3149 3149 3149 3148 3151 3152 3152 3153 3153 3154 3156
3120 3122 3124 3126 3127 3129 3130 3131 3132 3133 3134 3134 3136 3137 3138 3139 3139 3140 3140 3140 3141 3142 3142 3143 3143 3142 3143 3145 3145 3146 3146 3147 3148
3114 3116 3118 3120 3121 3123 3124 3125 3126 3127 3128 3129 3129 3130 3131 3132 3132 3133 3134 3134 3134 3135 3136 3137 3137 3136 3137 3138 3139 3138 3139 3139 3140
3107 3109 3111 3113 3115 3116 3118 3119 3119 3120 3121 3122 3122 3123 3125 3126 3126 3127 3127 3127 3127 3128 3128 3129 3130 3130 3130 3130 3130 3130 3130 3131 3131
3100 3102 3104 3106 3108 3110 3111 3112 3113 3113 3114 3115 3116 3116 3116 3118 3119 3119 3120 3121 3121 3121 3121 3120 3121 3122 3122 3122 3122 3122 3122 3122 3122
3092 3094 3096 3098 3100 3102 3104 3105 3107 3107 3108 3108 3108 3109 3109 3109 3111 3112 3112 3113 3113 3114 3113 3113 3112 3113 3113 3113 3112 3113 3113 3112 3112
3085 3087 3089 3090 3092 3094 3095 3097 3099 3100 3100 3101 3101 3101 3101 3102 3102 3103 3103 3104 3104 3105 3106 3105 3104 3104 3105 3104 3105 3103 3103 3102 3102